Home > Weather > Turin > Past weeks

Flag for Italy Weather for the Past 2 Weeks in Turin, Italy

Now
28 °F

Clear.


Feels Like: 23 °F
Forecast: 33 / 46 °F
Wind: 5 mph from Southwest

Location: Torino / Bric Della Croce

Current Time: Feb 13, 2016 at 5:48:22 AM

Latest Report: Feb 13, 2016 at 4:55 AM


Visibility: 10 mi

Pressure: 29.39 "Hg

Humidity: 93%

Dew point: 27 °F

Location of TurinLocation

Historic Weather in Turin — Graph

°F

Turin Temperature Yesterday

Maximum temperature yesterday: 34 °F (at 10:55 AM)
Minimum temperature yesterday: 27 °F (at 11:55 PM)
Average temperature yesterday: 31 °F

High & Low Weather Summary for the Past Weeks

 TemperatureHumidityPressure
High57 °F (Feb 1, 12:55 PM)100% (Jan 30, 2:55 AM)30.42 "Hg (Jan 30, 2:55 AM)
Low27 °F (Feb 12, 11:55 PM)10% (Feb 3, 11:55 PM)29.36 "Hg (Feb 10, 12:55 AM)
Average40 °F70%29.98 "Hg
* Reported Jan 29 3:55 AM — Feb 13 3:55 AM, Turin, Weather by CustomWeather, © 2016

Note: Actual official high and low records may vary slightly from our data, if they occured in-between our weather recording intervals... More about our weather records

Advertising

Turin Weather History for the Previous 24 Hours

 ConditionsComfort  
Time TempWeatherWind HumidityBarometerVisibility
3:55 AM
Sat, Feb 13
28 °FClear.6 mph86%29.39 "Hg10 mi
2:55 AM30 °FClear.No wind80%29.42 "Hg10 mi
1:55 AM28 °FClear.5 mph86%29.42 "Hg10 mi
12:55 AM28 °FClear.5 mph93%29.45 "Hg10 mi
11:55 PM
Fri, Feb 12
27 °FClear.2 mph100%29.45 "Hg10 mi
10:55 PM28 °FIce fog.5 mph100%29.47 "Hg0 mi
9:55 PM28 °FIce fog.3 mph100%29.47 "Hg0 mi
8:55 PM28 °FIce fog.3 mph100%29.47 "Hg1 mi
7:55 PM28 °FIce fog.3 mph100%29.47 "Hg0 mi
6:55 PM28 °FIce fog.6 mph100%29.47 "Hg0 mi
5:55 PM28 °FLight snow. Ice fog.7 mph100%29.47 "Hg0 mi
4:55 PM30 °FLight snow. Ice fog.9 mph100%29.50 "Hg0 mi
3:55 PM32 °FLight snow. Broken clouds.9 mph93%29.53 "HgN/A
2:55 PM34 °FScattered clouds.8 mph75%29.56 "HgN/A
1:55 PM34 °FSunny.5 mph65%29.56 "Hg10 mi
12:55 PM34 °FSunny.2 mph70%29.62 "Hg10 mi
11:55 AM34 °FPassing clouds.No wind65%29.65 "HgN/A
10:55 AM34 °FSunny.3 mph65%29.65 "Hg10 mi
9:55 AM32 °FSunny.3 mph64%29.65 "Hg10 mi
8:55 AM30 °FSunny.5 mph64%29.68 "Hg10 mi
7:55 AM28 °FSunny.5 mph59%29.65 "Hg10 mi
6:55 AM30 °FClear.7 mph51%29.65 "Hg10 mi
5:55 AM30 °FClear.7 mph55%29.68 "Hg10 mi
Weather by CustomWeather, © 2016

See weather overviewHow to use our weather pages